Regional Weather Roundup
Issued by NWS

Home | Current Version | Previous Version | Text Only | Print | Product List | Glossary Off
Versions: 1 2 3 4 5 6 7 8 9 10 11 12 13 14 15 16 17 18 19 20 21 22 23 24 25 26 27 28 29 30 31 32 33 34 35 36 37 38 39 40 41 42 43 44 45 46 47 48 49 50

019
ASUS43 KMPX 230210
RWRMN
WEATHER ROUNDUP FOR MINNESOTA
NATIONAL WEATHER SERVICE TWIN CITIES/CHANHASSEN MN
800 PM CST WED NOV 22 2017


NOTE: "FAIR" INDICATES FEW OR NO CLOUDS BELOW 12,000 FEET WITH NO
SIGNIFICANT WEATHER AND/OR OBSTRUCTIONS TO VISIBILITY. N/A MEANS
CURRENT SKY AND/OR WEATHER CONDITIONS ARE NOT AVAILABLE.

MNZ060>063-068>070-230300-
   Twin Cities Metro

CITY           SKY/WX    TMP DP  RH WIND       PRES   REMARKS
TWIN CITIES    CLOUDY    31  17  56 S9        30.02F WCI  23
ST PAUL        CLOUDY    31  17  56 SE12      30.04F WCI  22
CRYSTAL        CLOUDY    31  14  49 S8        29.99F WCI  23
BLAINE         CLOUDY    32  18  55 S12       30.00F WCI  23
LAKEVILLE      CLOUDY    30  18  59 S6        30.01F WCI  24
EDEN PRAIRIE   CLOUDY    32  16  51 S8        29.99F WCI  25
SOUTH ST PAUL  CLOUDY    31  17  54 S8        30.02F WCI  24
LAKE ELMO      CLOUDY    30  19  64 S8        30.03F WCI  23
$$
MNZ001>005-007-008-013>017-022>024-027-028-230300-
   Northwest Minnesota

CITY           SKY/WX    TMP DP  RH WIND       PRES   REMARKS
BEMIDJI        CLOUDY    21  17  85 SE7       29.93F WCI  12
HALLOCK        CLOUDY    25  21  86 S3        29.95R
ROSEAU         CLOUDY    18  14  86 SW3       29.94R
WARROAD        CLEAR     18  14  86 CALM      29.93S
THIEF RVR FALL CLOUDY    23  19  85 SE6       29.94F WCI  16
CROOKSTON      CLOUDY    28  21  74 SE3       29.94F
FOSSTON        CLOUDY    23  18  80 CALM      29.93F
DETROIT LAKES  PTCLDY    28  19  69 SE7       29.93S WCI  21
MOORHEAD       CLOUDY    25  16  68 CALM      29.92S
PARK RAPIDS    CLOUDY    24  17  74 SE5       29.93F WCI  18
MAHNOMEN       CLOUDY    27  17  65 SE3       29.91F
$$
MNZ006-009>011-018-025>026-230300-
   North Central Minnesota

CITY           SKY/WX    TMP DP  RH WIND       PRES   REMARKS
BAUDETTE       CLOUDY    20  17  88 S6        29.92F WCI  12
FLAG ISLAND    CLOUDY    21  18  86 SW6       29.92S WCI  14
INTL FALLS     CLOUDY    21  15  78 SW6       29.94F WCI  13
WASKISH        CLOUDY    21  18  86 S3        29.94S
BIG FORK       CLOUDY    21  18  86 S8        29.95F WCI  12
LONGVILLE      CLOUDY    21  18  86 SE3       29.97F
GRAND RAPIDS   FLURRIES  20  18  92 S8        29.99F WCI  10
CRANE LAKE     CLOUDY    19  16  86 CALM      29.97F
ORR            CLOUDY    19  16  86 S5        29.93F WCI  13
COOK           CLOUDY    19  18  93 S7        29.96F WCI  10
WALKER         CLOUDY    21  17  83 SE3       29.96R
$$
MNZ012-019>021-037-230300-
   Northeast Minnesota

CITY           SKY/WX    TMP DP  RH WIND       PRES   REMARKS
DULUTH         LGT SNOW  20  18  92 SW8       30.00S FOG     WCI  10
ELY            CLOUDY    19  16  86 SW8       29.94F WCI   9
HIBBING        CLOUDY    19  17  92 S6        29.97F WCI  11
EVELETH        FLURRIES  20  16  84 SW7       29.99S WCI  11
DULUTH HARBOR  LGT SNOW  25  21  86 W7        30.07R WCI  17
TWO HARBORS    LGT SNOW  25  19  80 SW9       29.99F WCI  15
SILVER BAY     CLOUDY    23  19  86 SW8       29.97F WCI  14
GRAND MARAIS     N/A     27  17  66 W13G22    30.00F WCI  16
G MARAIS ARPRT CLOUDY    18  10  73 SW3       29.92F
$$
MNZ029>031-032-039>041-046>048-054>057-064-230300-
   West Central Minnesota

CITY           SKY/WX    TMP DP  RH WIND       PRES   REMARKS
FERGUS FALLS   CLOUDY    27  16  63 SE7       29.94S WCI  19
WHEATON        CLOUDY    21  14  73 E6        29.93R WCI  14
MORRIS         CLOUDY    25  16  68 SE6       29.91S WCI  18
ALEXANDRIA     CLOUDY    25  15  66 SE6       29.93S WCI  18
ELBOW LAKE     FAIR      27  16  62 E7        29.92R HAZE    WCI  20
WADENA         CLOUDY    27  16  63 SE7       29.92F WCI  19
GLENWOOD       CLOUDY    25  18  74 E6        29.93R WCI  18
APPLETON       CLOUDY    30  18  59 SE6       29.92S WCI  24
BENSON         CLOUDY    28  16  59 S7        29.94S WCI  21
ORTONVILLE     CLOUDY    28  18  64 NE5       29.91S WCI  23
MADISON        CLOUDY    28  19  69 SE5       29.91F WCI  23
WILLMAR        FAIR      27  19  74 SE5       29.95S WCI  21
$$
MNZ033>034-036-042>043-049>051-058-059-230300-
   Central Minnesota

CITY           SKY/WX    TMP DP  RH WIND       PRES   REMARKS
ST CLOUD       CLOUDY    28  16  60 SE5       29.97F WCI  23
SAUK CENTRE    FAIR      27  16  63 E6        29.94S WCI  20
PAYNESVILLE    CLOUDY    29  19  67 SE6       29.94F WCI  23
AITKIN         DRIZZLE   21  18  86 CALM      29.98S
PINE RIVER     FLURRIES  21  18  86 E3        29.99F
BRAINERD       CLOUDY    24  17  74 SE5       29.98F WCI  18
STAPLES        CLOUDY    25  14  63 SE6       29.95S WCI  18
LITTLE FALLS   CLOUDY    27  10  50 SE3       29.98S
LITCHFIELD     CLOUDY    30  19  64 CALM      29.95F
BUFFALO        CLOUDY    30  15  55 SE8       29.98F WCI  22
MAPLE LAKE     CLOUDY    31  19  62 SE5       29.98F WCI  26
HUTCHINSON     CLOUDY    31  19  61 CALM      29.98F
$$
MNZ037-044-045-052-053-230300-
   East Central Minnesota

CITY           SKY/WX    TMP DP  RH WIND       PRES   REMARKS
PRINCETON      CLOUDY    28  16  59 SE5       29.99F WCI  23
MORA           CLOUDY    25  21  86 CALM      30.03R
CAMBRIDGE      FLURRIES  28  18  64 SE3       30.00F
RUSH CITY      CLOUDY    25  21  86 CALM      30.02F
MOOSE LAKE     LGT SNOW  23  19  86 CALM      30.01S
HINCKLEY       LGT SNOW  23  21  93 SE3       30.02F
CLOQUET        LGT SNOW  21  18  86 CALM      30.01S
MCGREGOR       CLOUDY    23  19  86 SE3       30.01S
$$
MNZ071>073-080-081-089-090-097-098-230300-
   Southwest Minnesota

CITY           SKY/WX    TMP DP  RH WIND       PRES   REMARKS
MONTEVIDEO     CLOUDY    28  18  64 SW5       29.92F WCI  23
GRANITE FALLS  CLOUDY    29  18  64 SE9       29.93F WCI  20
CANBY          CLEAR     38  22  52 SW14      29.90F
MARSHALL       CLOUDY    35  19  52 W13       29.92F WCI  26
REDWOOD FALLS  CLEAR     29  15  56 S10       29.95F WCI  20
OLIVIA         CLEAR     30  18  59 S7        29.93F WCI  23
PIPESTONE      CLEAR     30  18  59 SW10      29.92F WCI  21
WINDOM         CLEAR     32  16  51 SW10      29.95S WCI  24
WORTHINGTON    CLEAR     32  18  56 SW15      29.95S WCI  22
JACKSON        CLEAR     32  18  55 SW17      29.95F WCI  21
SLAYTON        CLEAR     32  13  45 SW15      29.93F WCI  21
$$
MNZ065>067-074>077-082>085-091>093-230300-
   South Central Minnesota

CITY           SKY/WX    TMP DP  RH WIND       PRES   REMARKS
MANKATO        CLOUDY    33  17  51 S9        30.00F WCI  25
NEW ULM        CLEAR     28  16  59 CALM      29.97F
ST JAMES       PTCLDY    32  18  55 S8        30.00S WCI  25
FAIRMONT       CLOUDY    34  17  50 S12       29.99S WCI  25
GLENCOE        CLOUDY    33  19  56 S6        29.97F WCI  27
FARIBAULT      CLOUDY    32  18  55 S8        30.02F WCI  25
OWATONNA       CLOUDY    34  18  51 S8        30.03F WCI  27
WASECA         CLOUDY    32  19  59 S9        30.04S WCI  24
ALBERT LEA     CLOUDY    34  14  44 S7        30.03R WCI  28
$$
MNZ078>079-086>088-094>096-230300-
   Southeast Minnesota

CITY           SKY/WX    TMP DP  RH WIND       PRES   REMARKS
ROCHESTER      CLOUDY    30  16  56 S12       30.05R WCI  20
RED WING       CLOUDY    30  12  47 S9        30.04F WCI  22
STANTON        CLOUDY    33  18  55 S7        30.02S WCI  27
DODGE CENTER   CLOUDY    30  18  59 S12       30.03S WCI  21
WINONA         CLOUDY    32  18  55 SE6       30.10F WCI  26
AUSTIN         CLOUDY    30  16  55 S10       30.04R WCI  21
PRESTON        CLOUDY    30  15  54 S13       30.06R WCI  20
$$
ABBREVIATIONS USED IN REMARKS
   TC - TEMPERATURES IN CELSIUS
  WCI - WIND CHILL INDEX
   HX - HEAT INDEX
  VSB - VISIBILITY
$$




USA.gov is the U.S. government's official web portal to all federal, state and local government web resources and services.